Back to catalog

LIZZIESAT

AliveScienceSSO
NORAD 59132·PAYLOAD·🇺🇸 United States

Launched Mar 4, 2024 from Vandenberg Space Force Base

Loading…

Next Passes (next 24 hours)

TLE

FreshSource: Space-Track

Epoch: Sep 14, 2026, 15:11 UTC

1 59132U 24043AL  26257.63317607  .00003378  00000-0  12632-3 0  9996
2 59132  97.5769  34.7898 0009175 293.7241  66.3035 15.28024894140599

Track LIZZIESAT in real time with AllMySat

Download on the App Store